Location: Amsterdam
(30.7274°N, 84.4357°W)
Time: 19:52:55
(UTC+00:00)

Vanguard 1 Rocket - Pass Details

Date: 17 February 2026
Orbit: 653 x 4214 km, 34.3° (Epoch: 11 March)

Event Time Altitude Azimuth Distance (km) Brightness Sun altitude
Rises 02:04:09 0° 290° (WNW) 7,236 13.0 -34.4°
Reaches altitude 10° 02:08:45 10° 285° (WNW) 6,575 12.5 -35.4°
Maximum altitude 02:30:30 47° 220° (SW) 4,988 11.1 -40.0°
Enters shadow 02:47:44 21° 162° (SSE) 6,053 11.2 -43.7°
